Weather History for Boscobel, WI

Change the Weather History Date:

Saturday, December 7, 2013

  Actual Average (KPDC) Record (KPDC)
Temperature  
Mean Temperature 8 °F -  
Max Temperature 15 °F 33 °F 53 °F (1951)
Min Temperature 0 °F 17 °F -14 °F (1976)
Degree Days  
Heating Degree Days 58    
Moisture  
Dew Point -4 °F    
Average Humidity 65    
Maximum Humidity 80    
Minimum Humidity 39    
Precipitation  
Precipitation 0.00 in - - ()
Sea Level Pressure  
Sea Level Pressure 30.70 in    
Wind  
Wind Speed 5 mph (WNW)    
Max Wind Speed 8 mph    
Max Gust Speed -    
Visibility 9 miles    
Events      
Averages and records for this station are not official NWS values.
T = Trace of Precipitation, MM = Missing Value Source: NWS Daily Summary

Daily Weather History Graph

Daily Weather History Graph

Search for Another Location

Airport:

Trip Planner

Search our weather history database for the weather conditions in past years. The results will help you decide how hot, cold, wet, or windy it might be!

Date:

Astronomy

Dec. 07, 2013 Rise Set
Actual Time 7:21 AM CST 4:27 PM CST
Civil Twilight 6:48 AM CST 4:59 PM CST
Nautical Twilight 6:13 AM CST 5:35 PM CST
Astronomical Twilight 5:38 AM CST 6:09 PM CST
Moon 11:00 AM CST (12/7) 10:15 PM CST (12/7)
Length of Visible Light 10h 10m
Length of Day
9h 06m
Waxing Crescent, 29% of the Moon is Illuminated
Dec 7
Waxing Crescent
Dec 9
First Quarter
Dec 17
Full
Dec 25
Last Quarter
Jan 1
New

Hourly Weather History & Observations

Time (CST) Temp. Windchill Dew Point Humidity Pressure Visibility Wind Dir Wind Speed Gust Speed Precip Events Conditions
12:53 AM 5.0 °F -8.1 °F -2.9 °F 70% 30.66 in 10.0 mi WNW 8.1 mph - N/A   Clear
1:53 AM 3.9 °F -8.2 °F -4.0 °F 70% 30.68 in 10.0 mi WNW 6.9 mph - N/A   Partly Cloudy
2:53 AM 1.9 °F -7.6 °F -5.1 °F 72% 30.71 in 10.0 mi NW 4.6 mph - N/A   Clear
3:53 AM 1.9 °F -7.6 °F -6.0 °F 69% 30.71 in 10.0 mi West 4.6 mph - N/A   Clear
4:53 AM 1.0 °F -8.7 °F -7.1 °F 69% 30.73 in 10.0 mi WNW 4.6 mph - N/A   Clear
5:53 AM 1.0 °F -6.7 °F -7.1 °F 69% 30.73 in 10.0 mi WSW 3.5 mph - N/A   Clear
6:53 AM 1.0 °F -8.7 °F -6.0 °F 72% 30.75 in 10.0 mi Variable 4.6 mph - N/A   Clear
7:53 AM -0.0 °F -9.9 °F -6.0 °F 76% 30.76 in 10.0 mi WSW 4.6 mph - N/A   Clear
8:53 AM 3.0 °F -6.4 °F -5.1 °F 69% 30.77 in 10.0 mi Variable 4.6 mph - N/A   Clear
9:53 AM 6.1 °F -2.8 °F -4.0 °F 63% 30.79 in 10.0 mi Variable 4.6 mph - 0.00 in   Clear
10:53 AM 9.0 °F -2.2 °F -4.0 °F 56% 30.78 in 10.0 mi NNW 6.9 mph - 0.00 in   Clear
11:53 AM 10.9 °F 4.7 °F -4.0 °F 51% 30.76 in 10.0 mi WNW 3.5 mph - 0.00 in   Clear
12:53 PM 12.9 °F 3.8 °F -5.1 °F 45% 30.74 in 10.0 mi NW 5.8 mph - 0.00 in   Clear
1:53 PM 14.0 °F 2.9 °F -5.1 °F 43% 30.73 in 10.0 mi West 8.1 mph - 0.00 in   Clear
2:53 PM 15.1 °F 5.2 °F -6.0 °F 39% 30.71 in 10.0 mi NW 6.9 mph - 0.00 in   Clear
3:53 PM 12.9 °F 3.8 °F -6.0 °F 43% 30.71 in 10.0 mi NW 5.8 mph - 0.00 in   Clear
4:53 PM 10.0 °F 3.6 °F -4.0 °F 53% 30.69 in 10.0 mi NW 3.5 mph - N/A   Clear
5:53 PM 8.1 °F - -4.0 °F 58% 30.67 in 10.0 mi Calm Calm - N/A   Clear
6:53 PM 3.9 °F - -4.0 °F 70% 30.67 in 7.0 mi Calm Calm - N/A   Clear
7:39 PM 3.9 °F - -2.9 °F 73% 30.62 in 1.8 mi Calm Calm - N/A   Haze
7:47 PM 3.2 °F - -2.2 °F 78% 30.61 in 3.0 mi Calm Calm - N/A   Haze
7:53 PM 1.9 °F - -4.0 °F 76% 30.67 in 10.0 mi Calm Calm - N/A   Clear
8:53 PM 3.9 °F - -0.9 °F 80% 30.66 in 10.0 mi Calm Calm - N/A   Clear
9:53 PM 5.0 °F - -0.9 °F 76% 30.66 in 10.0 mi Calm Calm - N/A   Clear
10:53 PM 7.0 °F - -0.0 °F 73% 30.67 in 10.0 mi Calm Calm - N/A   Overcast
11:53 PM 9.0 °F - 1.9 °F 73% 30.65 in 10.0 mi Calm Calm - N/A   Overcast